Location: Goettingen
(51.5300°N, 9.9433°E)
Time: 16:38:32
(UTC+01:00)

ISS - Pass Details

Date: 22 January 2020
Orbit: 415 x 421 km, 51.6° (Epoch: 18 January)

Event Time Altitude Azimuth Distance (km) Brightness Sun altitude
Rises 18:23:07 0° 203° (SSW) 2,354 0.6 -14.0°
Reaches altitude 10° 18:25:46 10° 181° (S) 1,493 -0.8 -14.4°
Maximum altitude 18:27:53 16° 141° (SE) 1,187 -1.7 -14.7°
Enters shadow 18:28:17 16° 132° (SE) 1,199 -1.8 -14.8°
